K5AGY Weather Reports


Display with metric or nautical units.
time (UTC)temp
F
wind
direction
speed
MPH
gust
MPH
rain 1hr
in
rain 24hr
in
rain mn
in
humidity
%
barometer
mb
20210926003022 80 98 0.0 0.0 0.00 0.00 0.00 47 1016.9
20210926000139 85 84 0.0 1.0 0.00 0.00 0.00 41 1017.1
20210925234533 86 65 0.0 2.0 0.00 0.00 0.00 38 1017.0
20210925233021 87 63 0.0 4.0 0.00 0.00 0.00 38 1017.0
20210925231716 88 89 0.0 4.0 0.00 0.00 0.00 36 1016.9
20210925230049 88 152 0.0 6.0 0.00 0.00 0.00 35 1016.8
20210925224519 88 90 0.0 4.0 0.00 0.00 0.00 35 1016.9
20210925223002 88 89 1.0 6.0 0.00 0.00 0.00 35 1016.8
20210925221734 90 70 1.0 6.0 0.00 0.00 0.00 35 1016.8
20210925220037 90 139 0.0 3.0 0.00 0.00 0.00 34 1016.8
20210925214502 89 63 0.0 7.0 0.00 0.00 0.00 35 1016.9
20210925213100 89 73 3.0 7.0 0.00 0.00 0.00 35 1017.0
20210925211542 89 66 0.0 6.0 0.00 0.00 0.00 35 1017.1
20210925210133 90 81 3.0 6.0 0.00 0.00 0.00 34 1017.2
20210925204548 89 146 1.0 10.0 0.00 0.00 0.00 35 1017.3
20210925203004 89 185 4.0 11.0 0.00 0.00 0.00 36 1017.6
20210925201557 89 104 5.0 11.0 0.00 0.00 0.00 36 1017.8
20210925200101 89 97 2.0 8.0 0.00 0.00 0.00 35 1018.1
20210925194652 88 63 0.0 11.0 0.00 0.00 0.00 38 1018.3
20210925193302 88 356 1.0 6.0 0.00 0.00 0.00 38 1018.6
20210925191528 87 19 1.0 11.0 0.00 0.00 0.00 39 1018.9
20210925190008 87 20 2.0 10.0 0.00 0.00 0.00 39 1019.1
20210925184618 87 138 3.0 10.0 0.00 0.00 0.00 40 1019.4
20210925183108 87 80 2.0 10.0 0.00 0.00 0.00 41 1019.6
20210925181506 86 30 1.0 13.0 0.00 0.00 0.00 41 1019.8
20210925180143 86 103 4.0 11.0 0.00 0.00 0.00 42 1020.1
20210925174555 86 113 2.0 8.0 0.00 0.00 0.00 43 1020.3
20210925173012 85 315 1.0 9.0 0.00 0.00 0.00 46 1020.4
20210925171647 84 133 6.0 13.0 0.00 0.00 0.00 45 1020.4
20210925170041 84 344 0.0 5.0 0.00 0.00 0.00 46 1020.6
20210925164655 83 106 3.0 8.0 0.00 0.00 0.00 45 1020.7
20210925163035 83 134 1.0 8.0 0.00 0.00 0.00 47 1020.7
20210925161513 82 10 0.0 4.0 0.00 0.00 0.00 51 1020.9
20210925160119 82 116 0.0 3.0 0.00 0.00 0.00 51 1020.9
20210925154542 80 287 0.0 4.0 0.00 0.00 0.00 56 1021.0
20210925153136 80 319 0.0 3.0 0.00 0.00 0.00 59 1021.0
20210925151547 79 62 0.0 3.0 0.00 0.00 0.00 63 1020.9
20210925150001 77 64 0.0 3.0 0.00 0.00 0.00 66 1020.8
20210925144602 75 65 0.0 0.0 0.00 0.00 0.00 70 1020.6
20210925143004 72 98 0.0 2.0 0.00 0.00 0.00 74 1020.6
20210925141556 69 25 0.0 1.0 0.00 0.00 0.00 81 1020.4
20210925140010 65 13 0.0 1.0 0.00 0.00 0.00 88 1020.2
20210925134600 63 352 0.0 1.0 0.00 0.00 0.00 91 1020.1
20210925133129 61 354 0.0 2.0 0.00 0.00 0.00 93 1020.1
20210925130109 58 1 0.0 0.0 0.00 0.00 0.00 96 1019.7
20210925124526 57 1 0.0 0.0 0.00 0.00 0.00 96 1019.6
20210925121609 56 1 0.0 0.0 0.00 0.00 0.00 96 1019.3
20210925120034 56 1 0.0 0.0 0.00 0.00 0.00 95 1019.2
20210925114825 57 1 0.0 0.0 0.00 0.00 0.00 95 1019.1
20210925113043 57 1 0.0 0.0 0.00 0.00 0.00 95 1018.8
20210925111521 57 1 0.0 0.0 0.00 0.00 0.00 95 1018.8
20210925110055 57 1 0.0 0.0 0.00 0.00 0.00 95 1018.7
20210925104543 58 1 0.0 0.0 0.00 0.00 0.00 95 1018.7
20210925103008 58 110 0.0 0.0 0.00 0.00 0.00 95 1018.5
20210925101629 58 111 0.0 0.0 0.00 0.00 0.00 95 1018.4
20210925100028 58 111 0.0 0.0 0.00 0.00 0.00 95 1018.3
20210925094512 58 111 0.0 0.0 0.00 0.00 0.00 94 1018.3
20210925093201 58 111 0.0 0.0 0.00 0.00 0.00 94 1018.3
20210925091553 59 111 0.0 0.0 0.00 0.00 0.00 94 1018.4
20210925090019 59 111 0.0 0.0 0.00 0.00 0.00 93 1018.3
20210925084630 59 111 0.0 0.0 0.00 0.00 0.00 93 1018.5
20210925083057 60 111 0.0 0.0 0.00 0.00 0.00 93 1018.4
20210925081522 60 111 0.0 0.0 0.00 0.00 0.00 92 1018.5
20210925080209 60 111 0.0 0.0 0.00 0.00 0.00 91 1018.5
20210925074618 61 111 0.0 0.0 0.00 0.00 0.00 91 1018.4
20210925073009 61 111 0.0 0.0 0.00 0.00 0.00 89 1018.3
20210925071548 62 111 0.0 0.0 0.00 0.00 0.00 88 1018.2
20210925064621 64 119 0.0 0.0 0.00 0.00 0.00 88 1018.3
20210925063101 64 119 0.0 0.0 0.00 0.00 0.00 87 1018.1
20210925061606 65 120 0.0 0.0 0.00 0.00 0.00 86 1018.1
20210925060129 65 122 0.0 1.0 0.00 0.00 0.00 85 1018.1
20210925054537 66 115 0.0 1.0 0.00 0.00 0.00 84 1018.0
20210925053117 66 109 0.0 2.0 0.00 0.00 0.00 83 1017.9
20210925051558 66 101 1.0 4.0 0.00 0.00 0.00 83 1017.8
20210925050036 66 120 0.0 2.0 0.00 0.00 0.00 83 1017.9
20210925044625 67 103 0.0 3.0 0.00 0.00 0.00 82 1017.7
20210925043110 67 108 1.0 4.0 0.00 0.00 0.00 81 1017.8
20210925041602 68 110 1.0 3.0 0.00 0.00 0.00 80 1017.7
20210925040001 68 100 2.0 5.0 0.00 0.00 0.00 79 1017.5
20210925034729 68 97 2.0 4.0 0.00 0.00 0.00 78 1017.5
20210925033112 69 124 0.0 2.0 0.00 0.00 0.00 77 1017.5
20210925031523 70 103 2.0 6.0 0.00 0.00 0.00 75 1017.3
20210925030139 71 115 3.0 7.0 0.00 0.00 0.00 74 1017.1
20210925024548 71 130 2.0 5.0 0.00 0.00 0.00 73 1017.2
20210925023107 72 113 3.0 8.0 0.00 0.00 0.00 71 1017.1
20210925021646 72 130 4.0 7.0 0.00 0.00 0.00 70 1016.8
20210925020040 73 125 1.0 6.0 0.00 0.00 0.00 68 1016.7
20210925014550 73 120 3.0 5.0 0.00 0.00 0.00 67 1016.4
20210925013005 74 116 2.0 6.0 0.00 0.00 0.00 64 1016.3
20210925011636 75 101 3.0 6.0 0.00 0.00 0.00 61 1016.2
20210925010028 76 117 1.0 4.0 0.00 0.00 0.00 58 1016.1
20210925004515 77 139 2.0 5.0 0.00 0.00 0.00 55 1015.9